Location: Bas Ville-Pays
(47.2264°N, 0.9465°E)
Time: 00:41:00
(UTC+00:00)

Daily predictions for brighter satellites

Satellite Brightness Start Highest point End
(mag) Time Altitude Azimuth Time Altitude Azimuth Time Altitude Azimuth
SL-16 R/B 4.3 03:46:48 18° NNE 03:47:51 19° NE 03:51:46 10° E
Cosmos 2082 Rocket 3.8 03:49:32 28° ESE 03:50:33 30° ESE 03:55:22 10° NE
COSMOS 2455 3.7 03:58:09 45° ENE 03:58:09 45° ENE 04:03:32 10° ESE
ATLAS 3B R/B 4.4 03:59:03 23° N 03:59:14 23° N 04:05:17 10° NE
Cosmos 1980 Rocket 3.3 04:14:14 37° SSE 04:14:14 37° SSE 04:17:28 10° SSE
Cosmos 2098 Rocket 4.4 04:15:58 50° SE 04:15:58 50° SE 04:20:17 10° SSE
Cosmos 2369 4.2 04:16:15 55° ENE 04:16:16 55° ENE 04:21:50 10° SE
Aureole 1 Rocket 4.4 04:20:44 45° N 04:23:05 72° ENE 04:30:34 10° SSE
Cosmos 372 Rocket 4.2 04:33:38 65° E 04:33:38 65° E 04:38:15 10° SSE
Cosmos 2333 Rocket 3.9 04:33:56 18° N 04:37:06 29° NE 04:42:04 10° ESE
Cosmos 1606 Rocket 4.2 04:43:11 52° NE 04:43:34 54° ENE 04:47:53 10° SSE
Cosmos 2360 Rocket 4.1 04:40:11 14° N 04:43:44 23° NE 04:48:10 10° E
Cosmos 2142 Rocket 4.3 04:47:06 47° NNW 04:49:00 74° W 04:55:11 10° S
Helios 1A Rocket 3.9 04:52:42 10° SE 04:55:47 35° ENE 04:55:47 35° ENE
USA 234 4.0 04:50:14 10° ENE 04:56:09 38° N 04:57:47 33° NNW
SeaSat 1 4.5 04:57:14 10° N 04:58:19 15° N 04:58:19 15° N
SL-4 R/B 3.4 05:03:15 25° NE 05:03:15 25° NE 05:04:57 10° ENE
Cosmos 2219 Rocket 4.3 04:58:15 10° N 05:02:29 21° NE 05:06:42 10° E
Cosmos 2322 Rocket 3.6 05:01:43 14° N 05:06:01 34° NE 05:11:10 10° ESE
Cosmos 1726 Rocket 3.6 05:08:07 32° N 05:10:02 75° E 05:14:16 10° SSE
Meteor 2-3 Rocket 4.1 05:04:48 10° S 05:10:28 65° E 05:16:06 10° NNE
Cosmos 489 Rocket 4.5 05:08:07 10° SSW 05:14:25 85° ESE 05:20:44 10° NNE
Nadezhda 4 Rocket 3.9 05:09:09 10° SSW 05:15:28 78° W 05:21:47 10° N
CZ-4 R/B 3.7 05:11:12 10° NNE 05:15:53 84° ESE 05:20:29 10° SSW
Cosmos 1428 Rocket 4.4 05:10:21 10° S 05:16:34 89° W 05:22:53 10° N
NOSS 2-1 (D) 3.3 05:17:47 60° SW 05:17:47 60° SW 05:22:18 10° SSE
Cosmos 2237 4.1 05:15:45 35° NW 05:18:14 76° WSW 05:23:54 10° SSE
USA 59 Rocket 0.0 05:20:26 52° SW 05:20:26 52° SW 05:25:01 10° SSE
Cosmos 841 Rocket 3.4 05:17:11 10° SSW 05:22:25 80° WNW 05:27:42 10° NNE
COSMOS 2406 3.2 05:17:16 10° SSW 05:22:55 83° ESE 05:28:38 10° NNE
NOSS 2-1 (E) 3.2 05:25:12 61° W 05:25:32 64° SW 05:30:09 10° SSE
Cosmos 1933 4.4 05:27:10 27° SSW 05:27:10 27° SSW 05:29:11 10° SSW
NOSS 3-1 (C) 4.0 05:21:26 28° NW 05:25:46 77° SW 05:34:38 10° SSE
Cosmos 1833 Rocket 4.4 05:28:01 16° NNW 05:28:01 16° NNW 05:30:19 10° N
Cosmos 1892 Rocket 3.5 05:25:05 10° S 05:29:26 84° E 05:33:52 10° N
Cosmos 2195 Rocket 4.4 05:23:38 10° S 05:29:54 88° W 05:36:16 10° N
SL-16 R/B 2.2 05:28:40 19° NNW 05:32:50 83° ENE 05:38:30 10° SSE
Cosmos 2082 Rocket 2.3 05:31:29 26° WSW 05:34:23 48° NW 05:39:49 10° NNE
IRS-1D 3.6 05:38:09 10° N 05:43:00 51° WNW 05:47:53 10° SW
COSMOS 2455 3.3 05:41:19 28° WNW 05:43:39 39° WSW 05:49:10 10° S
Cosmos 1898 Rocket 4.0 05:42:42 30° WNW 05:44:20 37° WSW 05:49:08 10° S
NOSS 2-1 (C) 4.0 05:44:49 33° W 05:45:33 36° SW 05:49:54 10° SSE
Meteor 2-20 4.3 05:39:46 10° NNW 05:45:53 75° W 05:51:56 10° S
Cosmos 405 Rocket 4.4 05:45:17 10° SSE 05:48:10 29° E 05:51:05 10° NNE
Orbus 7S? 3.8 05:47:32 26° N 05:48:16 31° NNE 05:50:44 10° E
ATLAS 3B R/B 4.2 05:46:18 12° NNW 05:52:35 32° NNE 05:59:20 10° E
Cosmos-2242 2.8 05:50:10 10° N 05:54:25 84° W 05:58:37 10° S
Cosmos 1980 Rocket 3.8 05:56:02 15° WSW 05:56:02 15° WSW 05:58:20 10° SW
Cosmos 2278 3.6 05:51:02 14° NNW 05:55:57 78° WSW 06:01:34 10° SSE
COSMO-SKYMED 1 2.9 05:52:54 10° SSW 05:56:46 39° W 05:59:10 20° NW
Tiangong 0.3 05:59:42 12° SW 06:00:50 14° SSW 06:02:31 10° S
Cosmos 2058 Rocket 3.0 05:57:10 10° NNW 06:01:35 65° W 06:05:56 10° S
Cosmos 1484 Rocket 2.3 05:58:13 10° N 06:01:39 73° WNW 06:05:01 10° SSW
Cosmos 1627 Rocket 4.4 05:56:23 10° SSW 06:02:26 64° WNW 06:08:33 10° N
Meteor 2-2 Rocket 4.2 05:59:12 10° NNW 06:04:51 70° W 06:10:35 10° S
Okean 1 2.9 06:03:47 10° NNW 06:07:20 67° W 06:10:51 10° S
Meteor 2-20 Rocket 4.2 06:02:19 10° NNW 06:08:05 70° W 06:13:43 10° S
Cosmos 1937 Rocket 4.2 06:06:02 18° NW 06:08:51 31° W 06:13:18 10° SSW
ARIANE 5 R/B 3.8 06:08:46 10° NNE 06:13:47 46° E 06:18:46 10° S
Cosmos 2285 Rocket 4.1 06:07:34 10° NNW 06:13:59 82° ENE 06:20:24 10° SSE
ATLAS 2AS CENTAUR R/B 4.4 06:08:02 10° S 06:14:26 38° ESE 06:20:41 10° NE
IRIDIUM 104 4.3 06:12:34 10° S 06:17:47 87° W 06:23:02 10° N
Cosmos 2333 Rocket 2.4 06:16:05 10° NW 06:21:45 58° WSW 06:27:21 10° S
SAR-Lupe-4 4.5 06:20:33 10° NNE 06:24:02 52° E 06:27:30 10° S
SMAP 3.2 06:20:21 10° NNE 06:25:02 80° ESE 06:29:42 10° SSW
IRIDIUM 114 4.3 06:21:43 10° S 06:26:56 73° W 06:32:10 10° N
Cosmos 2360 Rocket 2.2 06:22:40 10° NNW 06:28:18 74° WSW 06:33:53 10° SSE
Helios 1A Rocket 4.1 06:26:29 10° SW 06:28:31 15° W 06:29:20 14° WNW
Landsat 7 4.0 06:26:19 10° NNE 06:31:00 75° ESE 06:35:38 10° S
Cosmos 2026 Rocket 4.4 06:26:31 10° SW 06:32:06 37° WNW 06:37:44 10° N
NOSS 3-1 (A) 4.2 06:25:10 10° NW 06:32:20 66° SW 06:41:10 10° SSE
Cosmos 1814 Rocket 4.0 06:28:24 10° SSW 06:33:37 77° WNW 06:38:56 10° NNE
CBERS-1 4.0 06:28:41 10° N 06:33:43 59° WNW 06:38:41 10° SSW
IGS 5A 3.7 06:30:45 10° N 06:34:31 41° WNW 06:38:16 10° SW
BREEZE-M DEB (TANK) 1.8 06:34:37 15° W 06:35:59 58° SSW 06:38:35 10° ESE
IRIDIUM 103 4.4 06:30:58 10° SSW 06:36:07 61° W 06:41:18 10° N
Cosmos 2237 Rocket 4.3 06:32:46 10° N 06:36:38 18° NE 06:40:29 10° E
USA 234 3.8 06:32:09 10° E 06:38:24 49° NNE 06:44:41 10° NW
SL-4 R/B 1.5 06:36:58 12° WNW 06:39:51 66° NNE 06:43:01 10° ESE
Cosmos 1758 Rocket 3.5 06:35:37 10° SSW 06:40:00 65° W 06:44:24 10° N
Cosmos 1733 2.2 06:39:13 10° SW 06:40:53 28° WNW 06:42:34 10° NNW
Cosmos 1743 2.2 06:37:52 10° SSW 06:41:06 77° W 06:44:22 10° N
IRS-1C 4.4 06:37:39 10° NNE 06:43:00 77° ESE 06:48:19 10° S
Meteor 2-6 Rocket 4.5 06:39:16 10° NNW 06:45:08 60° W 06:50:57 10° S
BREEZE-M DEB (TANK) 3.2 06:42:50 10° W 06:45:37 69° N 06:53:10 10° E
Thor Agena Rocket 3.5 06:41:12 10° N 06:46:13 66° WNW 06:51:11 10° SSW
Cosmos 2219 Rocket 2.2 06:41:29 10° NNW 06:47:11 86° WSW 06:52:49 10° SSE
Cosmos 192 4.4 06:42:34 10° NNW 06:47:32 84° ENE 06:52:26 10° SSE
Cosmos 2322 Rocket 2.6 06:44:46 10° NW 06:50:11 45° WSW 06:55:32 10° S
S3M 4.1 06:44:45 10° N 06:51:00 87° E 06:57:08 10° S
Cosmos 1553 Rocket 4.4 06:47:30 10° NNW 06:53:33 46° W 06:59:36 10° SSW
